Rifle, CO

1:32 PM MST on February 25, 2018 (GMT -0700)
Garfield County Regional

Weather History for KRIL - October, 2010

Change the Weather History Date:

Wednesday, October 6, 2010

  Actual Average Record
Temperature  
Mean Temperature 64 °F 53 °F  
Max Temperature 75 °F 69 °F 86 °F (1956)
Min Temperature 53 °F 37 °F 22 °F (1937)
Degree Days  
Heating Degree Days 1 12  
Month to date heating degree days 66  
Since 1 July heating degree days 212  
Cooling Degree Days 0 0  
Month to date cooling degree days 0  
Year to date cooling degree days 541  
Growing Degree Days 14 (Base 50)    
Moisture  
Dew Point 45 °F    
Average Humidity 57    
Maximum Humidity 83    
Minimum Humidity 30    
Precipitation  
Precipitation 0.01 in 0.05 in 0.66 in (2006)
Month to date precipitation 0.34  
Year to date precipitation 10.81  
Sea Level Pressure  
Sea Level Pressure 30.15 in    
Wind  
Wind Speed 11 mph (West)    
Max Wind Speed 51 mph    
Max Gust Speed 64 mph    
Visibility 8 miles    
Events Rain    
T = Trace of Precipitation, MM = Missing Value Source: NWS Daily Summary

Daily Weather History Graph

Daily Weather History Graph

Search for Another Location

Airport or City:

Trip Planner

Search our weather history database for the weather conditions in past years. The results will help you decide how hot, cold, wet, or windy it might be!

Date:

Astronomy

Oct. 06, 2010 Rise Set
Actual Time 7:11 AM MDT 6:45 PM MDT
Civil Twilight 6:45 AM MDT 7:12 PM MDT
Nautical Twilight 6:13 AM MDT 7:43 PM MDT
Astronomical Twilight 5:42 AM MDT 8:14 PM MDT
Moon 5:52 AM MDT (10/6) 5:50 PM MDT (10/6)
Length of Visible Light 12h 27m
Length of Day
11h 33m
Waning Crescent, 2% of the Moon is Illuminated
Oct 6
Waning Crescent
Oct 7
New
Oct 14
First Quarter
Oct 22
Full
Oct 30
Last Quarter

Hourly Weather History & Observations

Time (MDT) Temp. Dew Point Humidity Pressure Visibility Wind Dir Wind Speed Gust Speed Precip Events Conditions
12:53 AM 55.9 °F 41.0 °F 57% 30.11 in 10.0 mi ENE 3.5 mph - N/A   Scattered Clouds
1:53 AM 55.9 °F 43.0 °F 62% 30.12 in 10.0 mi West 4.6 mph - N/A   Overcast
2:53 AM 60.1 °F 43.0 °F 53% 30.12 in 10.0 mi WNW 9.2 mph - N/A   Mostly Cloudy
3:53 AM 61.0 °F 46.0 °F 58% 30.11 in 10.0 mi WSW 15.0 mph - N/A   Scattered Clouds
4:53 AM 59.0 °F 43.0 °F 55% 30.12 in 10.0 mi SSW 3.5 mph - N/A   Overcast
5:53 AM 57.9 °F 44.1 °F 60% 30.12 in 10.0 mi South 3.5 mph - N/A   Overcast
6:53 AM 55.9 °F 45.0 °F 67% 30.15 in 10.0 mi Calm Calm - N/A   Overcast
7:53 AM 55.9 °F 46.0 °F 69% 30.19 in 10.0 mi Calm Calm - N/A   Mostly Cloudy
8:53 AM 57.0 °F 46.9 °F 69% 30.21 in 10.0 mi Calm Calm - N/A   Mostly Cloudy
9:53 AM 60.1 °F 46.9 °F 62% 30.22 in 10.0 mi Variable 5.8 mph - N/A   Mostly Cloudy
10:53 AM 64.0 °F 46.0 °F 52% 30.22 in 10.0 mi West 23.0 mph - N/A   Clear
11:53 AM 64.0 °F 45.0 °F 50% 30.20 in 10.0 mi West 12.7 mph - N/A   Mostly Cloudy
12:53 PM 70.0 °F 45.0 °F 41% 30.17 in 10.0 mi Variable 4.6 mph - N/A   Partly Cloudy
1:53 PM 69.1 °F 44.1 °F 40% 30.12 in 10.0 mi NW 3.5 mph - N/A   Partly Cloudy
2:53 PM 73.0 °F 43.0 °F 34% 30.05 in 10.0 mi ENE 10.4 mph - N/A   Clear
3:53 PM 72.0 °F 42.1 °F 34% 30.01 in 10.0 mi East 17.3 mph 24.2 mph N/A   Mostly Cloudy
4:53 PM 73.0 °F 39.9 °F 30% 29.99 in 10.0 mi East 12.7 mph - N/A   Clear
5:53 PM 72.0 °F 39.0 °F 30% 30.01 in 10.0 mi East 3.5 mph - N/A   Clear
6:03 PM 68.0 °F 39.2 °F 35% 30.19 in 2.5 mi WNW 39.1 mph 59.8 mph N/A   Haze
6:05 PM 64.4 °F 42.8 °F 45% 30.21 in 0.5 mi West 49.5 mph 61.0 mph N/A   Haze
6:12 PM 60.8 °F 42.8 °F 52% 30.21 in 0.2 mi West 50.6 mph 62.1 mph 0.00 in Rain Light Rain
6:21 PM 57.2 °F 44.6 °F 63% 30.25 in 0.5 mi West 46.0 mph 64.4 mph 0.00 in Rain Light Rain
6:23 PM 57.2 °F 46.4 °F 67% 30.26 in 1.2 mi West 48.3 mph 61.0 mph 0.00 in Rain Light Rain
6:27 PM 55.4 °F 46.4 °F 72% 30.27 in 3.0 mi West 42.6 mph 61.0 mph 0.00 in Rain Light Rain
6:53 PM 55.0 °F 46.9 °F 74% 30.18 in 10.0 mi West 21.9 mph 32.2 mph 0.01 in   Mostly Cloudy
7:53 PM 55.9 °F 48.0 °F 75% 30.17 in 10.0 mi SE 8.1 mph - N/A   Clear
8:53 PM 55.9 °F 46.9 °F 72% 30.17 in 10.0 mi NE 6.9 mph - N/A   Scattered Clouds
9:53 PM 55.0 °F 48.0 °F 77% 30.18 in 10.0 mi NW 4.6 mph - N/A   Partly Cloudy
10:53 PM 55.0 °F 46.9 °F 74% 30.14 in 10.0 mi Calm Calm - N/A   Clear
11:53 PM 53.1 °F 48.0 °F 83% 30.14 in 10.0 mi ESE 5.8 mph - N/A   Scattered Clouds